This demonstration page uses our WeatherBlox Daily Observations layout. Learn more.

Left ArrowRight Arrow

Hourly Observations for April 15, 2019

Temp ( °F °C ) Dew Point ( °F °C ) Humidity (%) Winds ( mph kmh ) Pressure ( in mb ) Visibility ( mi km ) Precip ( " mm )
12:52 am 00:52 Mostly Cloudy 47 8.3 27 -2.8 46 46 SSE 13 20 29.84 1011 10 16 0.00 0.03
1:52 am 01:52 Mostly Cloudy 47 8.3 26 -3.3 44 44 SSE 13 20 29.84 1010 10 16 0.00 0.00
2:52 am 02:52 Cloudy 48 8.9 26 -3.3 42 42 SE 12 19 29.82 1010 10 16 0.00 0.00
3:52 am 03:52 Mostly Cloudy 46 7.8 26 -3.3 46 46 SE 14 22 29.80 1009 10 16 0.00 0.00
4:52 am 04:52 Mostly Cloudy 47 8.3 26 -3.3 44 44 SE 14 22 29.80 1009 10 16 0.00 0.00
5:52 am 05:52 Cloudy 47 8.3 26 -3.3 44 44 SSE 18 30 29.80 1009 10 16 0.00 0.00
6:52 am 06:52 Partly Cloudy 46 7.8 27 -2.8 47 47 SSE 16 26 29.80 1009 10 16 0.00 0.00
7:52 am 07:52 Mostly Sunny 48 8.9 28 -2.2 46 46 SSE 15 24 29.81 1009 10 16 0.00 0.00
8:52 am 08:52 Mostly Sunny 53 11.7 31 -0.6 43 43 SSE 20 31 29.79 1009 10 16 0.00 0.00
9:52 am 09:52 Mostly Sunny 56 13.3 35 1.7 46 46 S 21 33 29.78 1009 10 16 0.00 0.00
10:52 am 10:52 Mostly Sunny 59 15 37 2.8 44 44 SSE 20 31 29.77 1008 10 16 0.00 0.00
11:52 am 11:52 Partly Cloudy 65 18.3 40 4.4 40 40 S 15 24 29.75 1007 10 16 0.00 0.00
12:52 pm 12:52 Partly Cloudy 69 20.6 41 5 36 36 S 18 30 29.72 1006 10 16 0.00 0.00
1:52 pm 13:52 Partly Cloudy 73 22.8 44 6.7 35 35 S 17 28 29.71 1006 10 16 0.00 0.00
2:52 pm 14:52 Partly Cloudy 76 24.4 44 6.7 32 32 SSE 16 26 29.69 1005 10 16 0.00 0.00
3:52 pm 15:52 Mostly Cloudy 77 25 45 7.2 32 32 SSE 17 28 29.68 1005 10 16 0.00 0.00
4:52 pm 16:52 Mostly Cloudy 79 26.1 45 7.2 30 30 S 12 19 29.67 1005 10 16 0.00 0.00
5:52 pm 17:52 Cloudy 77 25 47 8.3 35 35 SSE 9 15 29.68 1005 10 16 0.00 0.00
6:52 pm 18:52 Cloudy 75 23.9 46 7.8 36 36 SSE 14 22 29.68 1005 10 16 0.00 0.00
7:52 pm 19:52 Cloudy 73 22.8 45 7.2 37 37 S 12 19 29.69 1006 10 16 0.00 0.00
8:52 pm 20:52 Cloudy 71 21.7 47 8.3 42 42 S 14 22 29.70 1006 10 16 0.00 0.00
9:52 pm 21:52 Cloudy 68 20 47 8.3 47 47 SSE 12 19 29.72 1007 10 16 0.00 0.00
10:52 pm 22:52 Mostly Cloudy 59 15 47 8.3 64 64 N 18 30 29.75 1007 10 16 0.00 0.00
11:52 pm 23:52 Partly Cloudy 56 13.3 45 7.2 67 67 N 13 20 29.75 1007 10 16 0.00 0.00

Powered by AerisWeather